ソーホー彗星

C/1996 B3 ( SOHO )

English version
Home page
Updated on September 29, 1997

---------------------------------------------------------------------

・ プロフィール

発見日 1996年1月27日
発見光度 8.0等より暗い
発見者 SOHO-LASCO coronagraphs, automated search software by D. A. Biesecker

・ 軌道要素

T 1996 Jan. 28.71100 TT                                 Marsden
q   0.0054830            (2000.0)            P               Q
                   Peri.  114.52576     -0.00641286     -0.80517896
                   Node    42.67643     -0.87204435     -0.28571281
e   1.0            Incl.  118.97736     +0.48938485     -0.51966819
>From 24 observations 1996 Jan. 27-28.

・ 光度変化

        m1 = 20 + 5 logΔ + 10 log r

---------------------------------------------------------------------

軌道要素は Dr. Brian G. Marsden の計算によるもので、 M.P.E.C. 1997-K10 に掲載されたものです。
光度グラフはComet for Windowsで作成したものです。

---------------------------------------------------------------------

Copyright(C) Seiichi Yoshida (comet@aerith.net). All rights reserved.